UMI2037 PHNL-RJAA

Flight info

Callsign UMI2037
Flight time 8h 12m
Altitude 30000
Route PUPPI DCT CRESP DCT 24N170W 26N180E 28N170E/N0463F320 31N160E/N0462F340 34N150E DCT SEALS OTR13 LAPIL Y811 POROT Y809 SUPOK
Aircraft A21N/M-VGDW/C

Departure

Time 2026-05-07 23:09
Airport Daniel K. Inouye International Airport (PHNL)

Arrival

Time 2026-05-08 07:21
Airport Narita International Airport (RJAA)
Time Latitude Longitude Altitude Speed Heading
2026-05-07 22:33 21.32876 -157.91429 37 ft 0 kts
2026-05-07 22:57 21.32865 -157.91429 37 ft 3 kts
2026-05-07 22:57 21.32839 -157.91429 36 ft 3 kts
2026-05-07 22:57 21.32815 -157.91425 35 ft 3 kts 328°
2026-05-07 22:58 21.32803 -157.91403 35 ft 3 kts 278°
2026-05-07 22:58 21.32802 -157.91400 35 ft 0 kts 274°
2026-05-07 22:59 21.32803 -157.91417 35 ft 5 kts 274°
2026-05-07 23:00 21.32802 -157.91484 34 ft 11 kts 263°
2026-05-07 23:00 21.32793 -157.91569 34 ft 11 kts 263°
2026-05-07 23:00 21.32782 -157.91658 33 ft 12 kts 262°
2026-05-07 23:00 21.32773 -157.91754 32 ft 13 kts 269°
2026-05-07 23:01 21.32773 -157.91878 33 ft 22 kts 270°
2026-05-07 23:01 21.32773 -157.92041 36 ft 20 kts 270°
2026-05-07 23:01 21.32774 -157.92188 37 ft 18 kts 271°
2026-05-07 23:01 21.32776 -157.92320 40 ft 16 kts 271°
2026-05-07 23:02 21.32775 -157.92445 40 ft 17 kts 269°
2026-05-07 23:02 21.32814 -157.92560 40 ft 16 kts 319°
2026-05-07 23:02 21.32905 -157.92636 39 ft 16 kts 323°
2026-05-07 23:02 21.32894 -157.92705 38 ft 10 kts 134°
2026-05-07 23:03 21.32913 -157.92659 39 ft 4 kts 102°
2026-05-07 23:03 21.32878 -157.92671 38 ft 9 kts 224°
2026-05-07 23:03 21.32824 -157.92728 38 ft 11 kts 224°
2026-05-07 23:03 21.32760 -157.92795 36 ft 14 kts 229°
2026-05-07 23:04 21.32740 -157.92899 35 ft 14 kts 270°
2026-05-07 23:04 21.32740 -157.93016 33 ft 15 kts 270°
2026-05-07 23:04 21.32741 -157.93132 32 ft 16 kts 270°
2026-05-07 23:04 21.32742 -157.93268 32 ft 19 kts 270°
2026-05-07 23:05 21.32741 -157.93428 32 ft 22 kts 269°
2026-05-07 23:05 21.32741 -157.93600 33 ft 22 kts 270°
2026-05-07 23:05 21.32741 -157.93759 34 ft 20 kts 270°
2026-05-07 23:05 21.32741 -157.93913 34 ft 19 kts 270°
2026-05-07 23:06 21.32742 -157.94055 33 ft 19 kts 270°
2026-05-07 23:06 21.32744 -157.94199 32 ft 18 kts 270°
2026-05-07 23:06 21.32740 -157.94333 32 ft 15 kts 245°
2026-05-07 23:06 21.32650 -157.94328 32 ft 13 kts 155°
2026-05-07 23:07 21.32558 -157.94328 32 ft 13 kts 187°
2026-05-07 23:07 21.32519 -157.94310 32 ft 3 kts 91°
2026-05-07 23:07 21.32525 -157.94289 32 ft 3 kts 85°
2026-05-07 23:07 21.32524 -157.94281 32 ft 2 kts 90°
2026-05-07 23:08 21.32525 -157.94057 32 ft 63 kts 90°
2026-05-07 23:08 21.32525 -157.93349 30 ft 124 kts 90°
2026-05-07 23:08 21.32525 -157.92252 34 ft 172 kts 89°
2026-05-07 23:08 21.32550 -157.90871 338 ft 185 kts 91°
2026-05-07 23:09 21.32553 -157.89557 1014 ft 177 kts 89°
2026-05-07 23:09 21.32513 -157.88231 1524 ft 182 kts 92°
2026-05-07 23:09 21.32056 -157.86977 1957 ft 186 kts 129°
2026-05-07 23:09 21.30934 -157.86270 2272 ft 194 kts 168°
2026-05-07 23:10 21.29596 -157.86444 2557 ft 200 kts 206°
2026-05-07 23:10 21.28477 -157.87381 2816 ft 209 kts 223°
2026-05-07 23:10 21.27270 -157.88295 3038 ft 220 kts 207°
2026-05-07 23:10 21.25951 -157.89214 3250 ft 233 kts 229°
2026-05-07 23:11 21.25286 -157.90832 3393 ft 246 kts 270°
2026-05-07 23:11 21.25584 -157.92653 3664 ft 256 kts 287°
2026-05-07 23:11 21.26071 -157.94551 3930 ft 270 kts 285°
2026-05-07 23:11 21.26518 -157.96530 4327 ft 278 kts 284°
2026-05-07 23:12 21.26942 -157.98560 4882 ft 280 kts 283°
2026-05-07 23:12 21.27348 -158.00583 5430 ft 282 kts 283°
2026-05-07 23:12 21.27751 -158.02650 5982 ft 283 kts 282°
2026-05-07 23:12 21.28151 -158.04736 6532 ft 285 kts 282°
2026-05-07 23:13 21.28545 -158.06808 7070 ft 286 kts 282°
2026-05-07 23:13 21.28940 -158.08897 7611 ft 287 kts 282°
2026-05-07 23:13 21.29335 -158.10992 8112 ft 288 kts 281°
2026-05-07 23:13 21.29726 -158.13080 8585 ft 290 kts 281°
2026-05-07 23:14 21.30122 -158.15192 9070 ft 290 kts 281°
2026-05-07 23:14 21.30522 -158.17325 9512 ft 292 kts 281°
2026-05-07 23:14 21.30923 -158.19466 9941 ft 294 kts 281°
2026-05-07 23:14 21.31325 -158.21617 10339 ft 297 kts 281°
2026-05-07 23:15 21.31734 -158.23810 10533 ft 307 kts 281°
2026-05-07 23:15 21.32162 -158.26106 10722 ft 317 kts 281°
2026-05-07 23:15 21.32599 -158.28444 10958 ft 327 kts 281°
2026-05-07 23:15 21.33051 -158.30873 11139 ft 337 kts 281°
2026-05-07 23:16 21.33519 -158.33389 11354 ft 347 kts 281°
2026-05-07 23:16 21.33992 -158.35931 11607 ft 353 kts 281°
2026-05-07 23:16 21.34473 -158.38513 12011 ft 354 kts 281°
2026-05-07 23:16 21.34958 -158.41127 12407 ft 356 kts 281°
2026-05-07 23:17 21.35442 -158.43736 12771 ft 358 kts 281°
2026-05-07 23:17 21.35927 -158.46355 13094 ft 361 kts 281°
2026-05-07 23:17 21.36416 -158.48997 13443 ft 363 kts 281°
2026-05-07 23:17 21.36907 -158.51653 13793 ft 365 kts 281°
2026-05-07 23:18 21.37397 -158.54303 14129 ft 367 kts 281°
2026-05-07 23:18 21.37893 -158.56995 14462 ft 369 kts 281°
2026-05-07 23:18 21.38393 -158.59708 14778 ft 371 kts 281°
2026-05-07 23:18 21.38893 -158.62421 15104 ft 372 kts 281°
2026-05-07 23:19 21.39391 -158.65129 15416 ft 374 kts 281°
2026-05-07 23:19 21.39901 -158.67899 15704 ft 377 kts 281°
2026-05-07 23:19 21.40409 -158.70659 16002 ft 379 kts 280°
2026-05-07 23:19 21.40920 -158.73444 16306 ft 381 kts 280°
2026-05-07 23:20 21.41427 -158.76210 16592 ft 383 kts 280°
2026-05-07 23:20 21.41941 -158.79011 16900 ft 384 kts 280°
2026-05-07 23:20 21.42457 -158.81839 17187 ft 386 kts 280°
2026-05-07 23:20 21.42976 -158.84677 17462 ft 388 kts 280°
2026-05-07 23:21 21.43492 -158.87501 17750 ft 389 kts 280°
2026-05-07 23:21 21.44014 -158.90369 18033 ft 391 kts 280°
2026-05-07 23:21 21.44529 -158.93198 18294 ft 393 kts 281°
2026-05-07 23:21 21.45056 -158.96094 18555 ft 395 kts 280°
2026-05-07 23:22 21.45579 -158.98967 18831 ft 396 kts 280°
2026-05-07 23:22 21.46109 -159.01883 19097 ft 397 kts 280°
2026-05-07 23:22 21.46641 -159.04813 19371 ft 398 kts 281°
2026-05-07 23:22 21.47169 -159.07733 19636 ft 400 kts 281°
2026-05-07 23:23 21.47700 -159.10660 19877 ft 401 kts 281°
2026-05-07 23:23 21.48233 -159.13596 20109 ft 403 kts 281°
2026-05-07 23:23 21.48703 -159.16187 20311 ft 405 kts 280°
2026-05-07 23:23 21.49237 -159.19142 20504 ft 408 kts 280°
2026-05-07 23:24 21.49780 -159.22159 20674 ft 411 kts 280°
2026-05-07 23:24 21.50328 -159.25192 20943 ft 412 kts 280°
2026-05-07 23:24 21.50870 -159.28203 21217 ft 412 kts 280°
2026-05-07 23:24 21.51413 -159.31224 21470 ft 413 kts 280°
2026-05-07 23:25 21.51951 -159.34229 21702 ft 414 kts 280°
2026-05-07 23:25 21.52495 -159.37276 21940 ft 415 kts 281°
2026-05-07 23:25 21.53040 -159.40337 22155 ft 417 kts 281°
2026-05-07 23:25 21.53584 -159.43376 22373 ft 418 kts 281°
2026-05-07 23:26 21.54128 -159.46417 22580 ft 420 kts 281°
2026-05-07 23:26 21.54682 -159.49498 22765 ft 422 kts 281°
2026-05-07 23:26 21.55237 -159.52600 22959 ft 424 kts 282°
2026-05-07 23:26 21.55791 -159.55705 23188 ft 424 kts 281°
2026-05-07 23:27 21.56912 -159.61978 23552 ft 429 kts 281°
2026-05-07 23:27 21.57469 -159.65102 23717 ft 431 kts 281°
2026-05-07 23:27 21.58033 -159.68286 23925 ft 432 kts 280°
2026-05-07 23:28 21.58589 -159.71436 24133 ft 433 kts 281°
2026-05-07 23:28 21.59152 -159.74620 24436 ft 432 kts 281°
2026-05-07 23:28 21.59706 -159.77759 24737 ft 430 kts 281°
2026-05-07 23:28 21.60260 -159.80893 24959 ft 431 kts 281°
2026-05-07 23:29 21.60822 -159.84076 25154 ft 432 kts 281°
2026-05-07 23:29 21.61378 -159.87230 25367 ft 432 kts 281°
2026-05-07 23:29 21.61943 -159.90436 25555 ft 434 kts 280°
2026-05-07 23:29 21.62499 -159.93599 25719 ft 435 kts 280°
2026-05-07 23:30 21.63056 -159.96773 25890 ft 436 kts 280°
2026-05-07 23:30 21.63622 -159.99995 26084 ft 437 kts 280°
2026-05-07 23:30 21.64184 -160.03200 26243 ft 438 kts 280°
2026-05-07 23:30 21.64746 -160.06412 26394 ft 440 kts 280°
2026-05-07 23:31 21.65308 -160.09624 26577 ft 440 kts 280°
2026-05-07 23:31 21.65871 -160.12852 26772 ft 440 kts 280°
2026-05-07 23:31 21.66432 -160.16066 26965 ft 440 kts 280°
2026-05-07 23:31 21.66996 -160.19305 27209 ft 439 kts 280°
2026-05-07 23:32 21.67558 -160.22536 27475 ft 437 kts 280°
2026-05-07 23:32 21.68110 -160.25719 27740 ft 435 kts 280°
2026-05-07 23:32 21.68666 -160.28928 27974 ft 434 kts 280°
2026-05-07 23:32 21.69214 -160.32092 28171 ft 434 kts 280°
2026-05-07 23:33 21.69763 -160.35257 28376 ft 434 kts 280°
2026-05-07 23:33 21.70318 -160.38460 28599 ft 433 kts 280°
2026-05-07 23:33 21.70863 -160.41615 28823 ft 432 kts 280°
2026-05-07 23:33 21.71412 -160.44788 29041 ft 431 kts 279°
2026-05-07 23:34 21.71952 -160.47922 29290 ft 429 kts 279°
2026-05-07 23:34 21.72492 -160.51065 29507 ft 428 kts 279°
2026-05-07 23:34 21.73031 -160.54201 29710 ft 427 kts 279°
2026-05-07 23:34 21.73571 -160.57352 29952 ft 425 kts 279°
2026-05-07 23:35 21.74101 -160.60442 30169 ft 423 kts 280°
2026-05-07 23:35 21.74635 -160.63556 30367 ft 422 kts 279°
2026-05-07 23:35 21.75164 -160.66656 30577 ft 421 kts 279°
2026-05-07 23:35 21.75688 -160.69722 30777 ft 420 kts 279°
2026-05-07 23:36 21.76217 -160.72823 30963 ft 419 kts 279°
2026-05-07 23:36 21.76741 -160.75893 31095 ft 419 kts 279°
2026-05-07 23:36 21.77262 -160.78955 31253 ft 419 kts 279°
2026-05-07 23:36 21.77784 -160.82024 31393 ft 419 kts 279°
2026-05-07 23:37 21.78307 -160.85098 31517 ft 420 kts 279°
2026-05-07 23:37 21.78829 -160.88174 31628 ft 420 kts 279°
2026-05-07 23:37 21.79357 -160.91286 31754 ft 420 kts 279°
2026-05-07 23:37 21.79879 -160.94362 31901 ft 420 kts 279°
2026-05-07 23:38 21.80402 -160.97458 32053 ft 419 kts 279°
2026-05-07 23:38 21.80918 -161.00514 32097 ft 420 kts 279°
2026-05-07 23:38 21.81960 -161.06703 32105 ft 421 kts 279°
2026-05-07 23:39 21.83001 -161.12892 32110 ft 421 kts 279°
2026-05-07 23:39 21.84039 -161.19073 32110 ft 420 kts 279°
2026-05-07 23:40 21.85076 -161.25262 32105 ft 424 kts 279°
2026-05-07 23:40 21.86120 -161.31517 32112 ft 430 kts 279°
2026-05-07 23:41 21.87182 -161.37885 32109 ft 435 kts 279°
2026-05-07 23:41 21.88253 -161.44344 32118 ft 440 kts 279°
2026-05-07 23:42 21.89328 -161.50832 32111 ft 445 kts 279°
2026-05-07 23:42 21.90411 -161.57397 32118 ft 447 kts 279°
2026-05-07 23:43 21.91493 -161.63971 32107 ft 449 kts 279°
2026-05-07 23:43 21.92544 -161.70592 32115 ft 450 kts 278°
2026-05-07 23:44 21.93431 -161.77243 32116 ft 449 kts 277°
2026-05-07 23:44 21.94304 -161.83891 32118 ft 448 kts 277°
2026-05-07 23:45 21.95181 -161.90546 32112 ft 448 kts 277°
2026-05-07 23:45 21.96051 -161.97134 32114 ft 448 kts 277°
2026-05-07 23:46 21.96927 -162.03775 32111 ft 448 kts 277°
2026-05-07 23:46 21.97803 -162.10428 32116 ft 450 kts 277°
2026-05-07 23:47 21.98678 -162.17082 32107 ft 449 kts 277°
2026-05-07 23:47 21.99548 -162.23730 32118 ft 450 kts 277°
2026-05-07 23:48 22.00417 -162.30386 32100 ft 450 kts 277°
2026-05-07 23:48 22.01285 -162.37061 32110 ft 450 kts 277°
2026-05-07 23:49 22.02149 -162.43732 32113 ft 449 kts 277°
2026-05-07 23:49 22.03006 -162.50368 32121 ft 449 kts 277°
2026-05-07 23:50 22.03861 -162.57011 32115 ft 449 kts 277°
2026-05-07 23:50 22.04718 -162.63689 32114 ft 449 kts 277°
2026-05-07 23:51 22.05570 -162.70334 32113 ft 449 kts 277°
2026-05-07 23:51 22.06416 -162.76959 32105 ft 449 kts 277°
2026-05-07 23:52 22.07259 -162.83603 32115 ft 449 kts 277°
2026-05-07 23:52 22.08102 -162.90256 32116 ft 450 kts 277°
2026-05-07 23:53 22.08947 -162.96959 32114 ft 449 kts 277°
2026-05-07 23:53 22.09784 -163.03613 32118 ft 450 kts 277°
2026-05-07 23:54 22.10615 -163.10233 32114 ft 449 kts 277°
2026-05-07 23:54 22.11447 -163.16882 32120 ft 448 kts 277°
2026-05-07 23:55 22.12279 -163.23557 32115 ft 448 kts 277°
2026-05-07 23:55 22.13104 -163.30203 32123 ft 449 kts 277°
2026-05-07 23:56 22.13926 -163.36847 32117 ft 449 kts 277°
2026-05-07 23:56 22.14747 -163.43512 32119 ft 449 kts 277°
2026-05-07 23:57 22.15565 -163.50180 32109 ft 449 kts 277°
2026-05-07 23:57 22.16381 -163.56845 32116 ft 449 kts 277°
2026-05-07 23:58 22.17193 -163.63496 32122 ft 448 kts 277°
2026-05-07 23:58 22.18000 -163.70143 32116 ft 448 kts 277°
2026-05-07 23:59 22.18803 -163.76794 32120 ft 447 kts 277°
2026-05-07 23:59 22.19601 -163.83415 32113 ft 447 kts 277°
2026-05-08 00:00 22.20609 -163.90037 32117 ft 448 kts 281°
2026-05-08 00:00 22.22202 -163.96500 32115 ft 448 kts 287°
2026-05-08 00:01 22.24202 -164.02872 32128 ft 451 kts 288°
2026-05-08 00:01 22.26231 -164.09256 32123 ft 451 kts 288°
2026-05-08 00:02 22.28258 -164.15646 32109 ft 449 kts 288°
2026-05-08 00:02 22.30280 -164.22043 32123 ft 449 kts 288°
2026-05-08 00:03 22.32281 -164.28386 32123 ft 449 kts 287°
2026-05-08 00:03 22.34290 -164.34767 32126 ft 449 kts 287°
2026-05-08 00:04 22.36297 -164.41147 32138 ft 449 kts 288°
2026-05-08 00:04 22.38289 -164.47496 32136 ft 449 kts 288°
2026-05-08 00:05 22.40292 -164.53882 32123 ft 449 kts 288°
2026-05-08 00:05 22.42283 -164.60245 32134 ft 449 kts 288°
2026-05-08 00:06 22.44277 -164.66626 32134 ft 449 kts 287°
2026-05-08 00:06 22.46274 -164.73025 32130 ft 449 kts 287°
2026-05-08 00:07 22.48265 -164.79417 32131 ft 449 kts 287°
2026-05-08 00:07 22.50242 -164.85774 32119 ft 449 kts 287°
2026-05-08 00:08 22.52233 -164.92184 32115 ft 450 kts 287°
2026-05-08 00:08 22.54208 -164.98550 32123 ft 450 kts 287°
2026-05-08 00:09 22.56198 -165.04977 32124 ft 450 kts 287°
2026-05-08 00:09 22.58178 -165.11385 32128 ft 449 kts 287°
2026-05-08 00:10 22.60142 -165.17749 32125 ft 449 kts 287°
2026-05-08 00:10 22.62120 -165.24165 32128 ft 450 kts 287°
2026-05-08 00:11 22.64101 -165.30605 32118 ft 451 kts 287°
2026-05-08 00:11 22.66067 -165.37004 32122 ft 450 kts 287°
2026-05-08 00:12 22.68038 -165.43428 32126 ft 451 kts 287°
2026-05-08 00:12 22.70013 -165.49883 32122 ft 451 kts 287°
2026-05-08 00:13 22.71977 -165.56303 32119 ft 450 kts 287°
2026-05-08 00:13 22.73933 -165.62711 32123 ft 451 kts 287°
2026-05-08 00:14 22.75903 -165.69174 32125 ft 450 kts 287°
2026-05-08 00:14 22.77864 -165.75618 32131 ft 451 kts 287°
2026-05-08 00:15 22.79818 -165.82051 32124 ft 451 kts 287°
2026-05-08 00:15 22.81765 -165.88467 32137 ft 451 kts 287°
2026-05-08 00:16 22.83724 -165.94943 32134 ft 452 kts 287°
2026-05-08 00:16 22.85663 -166.01360 32128 ft 451 kts 287°
2026-05-08 00:17 22.87619 -166.07834 32121 ft 452 kts 287°
2026-05-08 00:17 22.89573 -166.14320 32121 ft 453 kts 287°
2026-05-08 00:18 22.91512 -166.20763 32131 ft 453 kts 287°
2026-05-08 00:18 22.93467 -166.27274 32130 ft 455 kts 287°
2026-05-08 00:19 22.95418 -166.33783 32135 ft 454 kts 287°
2026-05-08 00:19 22.97358 -166.40266 32142 ft 453 kts 287°
2026-05-08 00:20 22.99300 -166.46761 32135 ft 453 kts 287°
2026-05-08 00:20 23.01233 -166.53238 32141 ft 453 kts 287°
2026-05-08 00:21 23.03173 -166.59749 32136 ft 453 kts 287°
2026-05-08 00:21 23.05107 -166.66254 32137 ft 454 kts 286°
2026-05-08 00:22 23.07032 -166.72736 32134 ft 454 kts 286°
2026-05-08 00:22 23.08969 -166.79268 32130 ft 454 kts 286°
2026-05-08 00:23 23.10892 -166.85770 32139 ft 453 kts 286°
2026-05-08 00:23 23.12806 -166.92255 32141 ft 453 kts 287°
2026-05-08 00:24 23.14726 -166.98761 32139 ft 452 kts 286°
2026-05-08 00:24 23.16642 -167.05269 32139 ft 452 kts 287°
2026-05-08 00:25 23.18542 -167.11737 32134 ft 453 kts 286°
2026-05-08 00:25 23.20455 -167.18257 32139 ft 453 kts 287°
2026-05-08 00:26 23.22364 -167.24765 32143 ft 453 kts 286°
2026-05-08 00:26 23.24269 -167.31284 32141 ft 453 kts 286°
2026-05-08 00:27 23.26169 -167.37790 32143 ft 453 kts 286°
2026-05-08 00:27 23.28077 -167.44336 32147 ft 453 kts 286°
2026-05-08 00:28 23.29966 -167.50829 32146 ft 452 kts 286°
2026-05-08 00:28 23.31860 -167.57353 32149 ft 454 kts 286°
2026-05-08 00:29 23.33756 -167.63887 32152 ft 453 kts 286°
2026-05-08 00:29 23.35641 -167.70403 32152 ft 453 kts 286°
2026-05-08 00:30 23.37532 -167.76949 32154 ft 454 kts 286°
2026-05-08 00:30 23.39411 -167.83460 32150 ft 454 kts 286°
2026-05-08 00:31 23.41298 -167.90012 32156 ft 453 kts 286°
2026-05-08 00:31 23.43177 -167.96552 32146 ft 453 kts 286°
2026-05-08 00:32 23.45055 -168.03091 32147 ft 452 kts 286°
2026-05-08 00:32 23.46925 -168.09622 32155 ft 454 kts 286°
2026-05-08 00:33 23.48798 -168.16170 32149 ft 453 kts 286°
2026-05-08 00:33 23.50667 -168.22717 32147 ft 453 kts 286°
2026-05-08 00:34 23.52532 -168.29257 32147 ft 452 kts 285°
2026-05-08 00:34 23.54385 -168.35774 32144 ft 454 kts 286°
2026-05-08 00:35 23.56247 -168.42333 32143 ft 453 kts 285°
2026-05-08 00:35 23.58104 -168.48886 32145 ft 453 kts 286°
2026-05-08 00:36 23.59961 -168.55449 32151 ft 454 kts 286°
2026-05-08 00:36 23.61812 -168.62001 32145 ft 453 kts 286°
2026-05-08 00:37 23.63655 -168.68533 32148 ft 454 kts 285°
2026-05-08 00:38 23.66430 -168.78398 32150 ft 456 kts 285°
2026-05-08 00:38 23.68290 -168.85020 32143 ft 455 kts 285°
2026-05-08 00:39 23.70128 -168.91579 32147 ft 455 kts 285°
2026-05-08 00:39 23.71960 -168.98137 32152 ft 454 kts 285°
2026-05-08 00:40 23.73802 -169.04727 32155 ft 454 kts 285°
2026-05-08 00:40 23.75639 -169.11322 32159 ft 454 kts 285°
2026-05-08 00:41 23.77479 -169.17934 32156 ft 455 kts 285°
2026-05-08 00:41 23.79303 -169.24499 32162 ft 456 kts 285°
2026-05-08 00:42 23.81148 -169.31158 32158 ft 457 kts 285°
2026-05-08 00:42 23.82977 -169.37770 32161 ft 456 kts 285°
2026-05-08 00:43 23.84801 -169.44380 32163 ft 457 kts 285°
2026-05-08 00:43 23.86628 -169.51006 32168 ft 456 kts 285°
2026-05-08 00:44 23.88447 -169.57617 32173 ft 456 kts 285°
2026-05-08 00:44 23.90264 -169.64233 32171 ft 456 kts 285°
2026-05-08 00:45 23.92082 -169.70869 32173 ft 457 kts 285°
2026-05-08 00:45 23.93896 -169.77507 32178 ft 458 kts 285°
2026-05-08 00:46 23.95724 -169.84206 32175 ft 459 kts 285°
2026-05-08 00:46 23.97534 -169.90858 32171 ft 459 kts 285°
2026-05-08 00:47 23.99339 -169.97502 32174 ft 458 kts 285°
2026-05-08 00:47 24.01037 -170.04250 32176 ft 459 kts 283°
2026-05-08 00:48 24.02631 -170.10974 32176 ft 458 kts 283°
2026-05-08 00:48 24.04214 -170.17693 32175 ft 458 kts 283°
2026-05-08 00:49 24.05796 -170.24417 32171 ft 457 kts 283°
2026-05-08 00:49 24.07377 -170.31154 32174 ft 458 kts 283°
2026-05-08 00:50 24.08954 -170.37888 32175 ft 458 kts 283°
2026-05-08 00:50 24.10534 -170.44644 32171 ft 458 kts 283°
2026-05-08 00:51 24.12101 -170.51361 32237 ft 459 kts 283°
2026-05-08 00:51 24.12886 -170.54736 32363 ft 458 kts 283°
2026-05-08 00:51 24.13671 -170.58113 32477 ft 457 kts 283°
2026-05-08 00:52 24.15230 -170.64825 32627 ft 457 kts 283°
2026-05-08 00:52 24.16795 -170.71578 32820 ft 456 kts 283°
2026-05-08 00:52 24.17569 -170.74915 32931 ft 455 kts 283°
2026-05-08 00:53 24.18339 -170.78250 33038 ft 455 kts 283°
2026-05-08 00:53 24.19887 -170.84959 33249 ft 453 kts 283°
2026-05-08 00:53 24.20653 -170.88281 33369 ft 452 kts 283°
2026-05-08 00:54 24.21426 -170.91643 33483 ft 451 kts 283°
2026-05-08 00:54 24.22188 -170.94955 33584 ft 451 kts 283°
2026-05-08 00:54 24.22948 -170.98261 33676 ft 450 kts 283°
2026-05-08 00:54 24.23703 -171.01552 33781 ft 449 kts 283°
2026-05-08 00:55 24.24467 -171.04886 33897 ft 448 kts 283°
2026-05-08 00:55 24.25973 -171.11465 34067 ft 447 kts 283°
2026-05-08 00:56 24.27481 -171.18072 34171 ft 446 kts 283°
2026-05-08 00:56 24.28978 -171.24644 34177 ft 447 kts 283°
2026-05-08 00:57 24.30475 -171.31230 34180 ft 446 kts 283°
2026-05-08 00:57 24.31978 -171.37852 34171 ft 446 kts 282°
2026-05-08 00:58 24.33464 -171.44414 34176 ft 446 kts 282°
2026-05-08 00:58 24.34949 -171.50992 34171 ft 446 kts 283°
2026-05-08 00:59 24.36437 -171.57594 34175 ft 446 kts 282°
2026-05-08 00:59 24.37919 -171.64186 34172 ft 446 kts 283°
2026-05-08 01:00 24.39397 -171.70770 34169 ft 447 kts 282°
2026-05-08 01:00 24.40878 -171.77379 34165 ft 447 kts 282°
2026-05-08 01:01 24.42360 -171.84009 34167 ft 447 kts 282°
2026-05-08 01:01 24.43833 -171.90611 34166 ft 447 kts 282°
2026-05-08 01:02 24.45307 -171.97237 34168 ft 447 kts 282°
2026-05-08 01:02 24.46772 -172.03838 34157 ft 447 kts 282°
2026-05-08 01:03 24.48232 -172.10429 34168 ft 447 kts 282°
2026-05-08 01:03 24.49696 -172.17055 34170 ft 447 kts 282°
2026-05-08 01:04 24.51154 -172.23660 34166 ft 447 kts 282°
2026-05-08 01:04 24.52620 -172.30319 34165 ft 448 kts 282°
2026-05-08 01:05 24.54075 -172.36942 34166 ft 448 kts 282°
2026-05-08 01:05 24.55520 -172.43544 34167 ft 448 kts 282°
2026-05-08 01:06 24.56979 -172.50217 34176 ft 448 kts 282°
2026-05-08 01:06 24.58420 -172.56822 34168 ft 448 kts 282°
2026-05-08 01:07 24.59866 -172.63467 34169 ft 448 kts 282°
2026-05-08 01:07 24.61315 -172.70140 34171 ft 449 kts 282°
2026-05-08 01:08 24.62750 -172.76761 34171 ft 449 kts 282°
2026-05-08 01:08 24.64191 -172.83427 34170 ft 449 kts 282°
2026-05-08 01:09 24.65634 -172.90120 34172 ft 449 kts 282°
2026-05-08 01:09 24.67065 -172.96771 34168 ft 448 kts 282°
2026-05-08 01:10 24.68492 -173.03420 34172 ft 449 kts 282°
2026-05-08 01:10 24.69914 -173.10056 34179 ft 449 kts 282°
2026-05-08 01:11 24.71340 -173.16727 34185 ft 449 kts 282°
2026-05-08 01:11 24.72771 -173.23438 34186 ft 449 kts 282°
2026-05-08 01:12 24.74189 -173.30104 34187 ft 449 kts 282°
2026-05-08 01:12 24.75605 -173.36775 34185 ft 450 kts 282°
2026-05-08 01:13 24.77022 -173.43468 34188 ft 450 kts 282°
2026-05-08 01:13 24.78428 -173.50119 34189 ft 450 kts 282°
2026-05-08 01:14 24.79844 -173.56836 34188 ft 449 kts 282°
2026-05-08 01:14 24.81244 -173.63492 34188 ft 449 kts 282°
2026-05-08 01:15 24.82645 -173.70174 34188 ft 449 kts 282°
2026-05-08 01:15 24.84043 -173.76855 34188 ft 449 kts 282°
2026-05-08 01:16 24.85452 -173.83604 34193 ft 450 kts 282°
2026-05-08 01:16 24.86842 -173.90279 34190 ft 450 kts 282°
2026-05-08 01:17 24.88239 -173.97002 34192 ft 450 kts 282°
2026-05-08 01:17 24.89625 -174.03685 34193 ft 450 kts 282°
2026-05-08 01:18 24.91021 -174.10431 34193 ft 450 kts 282°
2026-05-08 01:18 24.92399 -174.17107 34195 ft 449 kts 282°
2026-05-08 01:19 24.93781 -174.23822 34188 ft 449 kts 282°
2026-05-08 01:19 24.95152 -174.30502 34193 ft 450 kts 282°
2026-05-08 01:20 24.96527 -174.37216 34195 ft 450 kts 282°
2026-05-08 01:20 24.97900 -174.43938 34195 ft 451 kts 282°
2026-05-08 01:21 24.99268 -174.50645 34194 ft 450 kts 282°
2026-05-08 01:21 25.00640 -174.57393 34195 ft 450 kts 282°
2026-05-08 01:22 25.02006 -174.64122 34197 ft 450 kts 282°
2026-05-08 01:22 25.03362 -174.70819 34198 ft 450 kts 282°
2026-05-08 01:23 25.04714 -174.77516 34197 ft 450 kts 282°
2026-05-08 01:23 25.06070 -174.84248 34195 ft 450 kts 282°
2026-05-08 01:24 25.07422 -174.90977 34197 ft 449 kts 282°
2026-05-08 01:24 25.08768 -174.97702 34197 ft 450 kts 282°
2026-05-08 01:25 25.10113 -175.04431 34198 ft 450 kts 282°
2026-05-08 01:25 25.11455 -175.11156 34200 ft 450 kts 282°
2026-05-08 01:26 25.12789 -175.17859 34199 ft 450 kts 282°
2026-05-08 01:26 25.14123 -175.24588 34199 ft 451 kts 282°
2026-05-08 01:27 25.15463 -175.31357 34202 ft 450 kts 282°
2026-05-08 01:27 25.16790 -175.38078 34200 ft 449 kts 282°
2026-05-08 01:28 25.18113 -175.44801 34200 ft 450 kts 282°
2026-05-08 01:28 25.19430 -175.51506 34200 ft 450 kts 282°
2026-05-08 01:29 25.20751 -175.58241 34201 ft 450 kts 282°
2026-05-08 01:29 25.22068 -175.64973 34202 ft 450 kts 282°
2026-05-08 01:30 25.23377 -175.71689 34203 ft 450 kts 281°
2026-05-08 01:30 25.24688 -175.78436 34201 ft 450 kts 281°
2026-05-08 01:31 25.26003 -175.85214 34202 ft 450 kts 282°
2026-05-08 01:31 25.27310 -175.91975 34201 ft 450 kts 282°
2026-05-08 01:32 25.28611 -175.98717 34206 ft 450 kts 282°
2026-05-08 01:32 25.29905 -176.05432 34201 ft 450 kts 282°
2026-05-08 01:33 25.31207 -176.12213 34204 ft 450 kts 282°
2026-05-08 01:33 25.32495 -176.18945 34205 ft 450 kts 282°
2026-05-08 01:34 25.33787 -176.25705 34202 ft 450 kts 282°
2026-05-08 01:34 25.35070 -176.32446 34200 ft 450 kts 282°
2026-05-08 01:35 25.36352 -176.39194 34196 ft 450 kts 282°
2026-05-08 01:35 25.37637 -176.45970 34189 ft 450 kts 282°
2026-05-08 01:36 25.38907 -176.52692 34191 ft 449 kts 282°
2026-05-08 01:36 25.40178 -176.59428 34192 ft 450 kts 282°
2026-05-08 01:37 25.41458 -176.66240 34194 ft 450 kts 281°
2026-05-08 01:37 25.42719 -176.72966 34193 ft 451 kts 281°
2026-05-08 01:38 25.43985 -176.79741 34191 ft 450 kts 282°
2026-05-08 01:38 25.45249 -176.86519 34195 ft 450 kts 282°
2026-05-08 01:39 25.46505 -176.93268 34199 ft 450 kts 282°
2026-05-08 01:39 25.47764 -177.00052 34194 ft 450 kts 282°
2026-05-08 01:40 25.49014 -177.06804 34197 ft 451 kts 282°
2026-05-08 01:40 25.50268 -177.13602 34199 ft 450 kts 282°
2026-05-08 01:41 25.51511 -177.20357 34201 ft 451 kts 282°
2026-05-08 01:41 25.52754 -177.27127 34202 ft 450 kts 282°
2026-05-08 01:42 25.53997 -177.33916 34205 ft 450 kts 282°
2026-05-08 01:42 25.55235 -177.40704 34203 ft 450 kts 282°
2026-05-08 01:43 25.56470 -177.47488 34211 ft 450 kts 282°
2026-05-08 01:43 25.57695 -177.54236 34208 ft 450 kts 282°
2026-05-08 01:44 25.58924 -177.61021 34207 ft 450 kts 282°
2026-05-08 01:44 25.60147 -177.67795 34209 ft 450 kts 281°
2026-05-08 01:45 25.61365 -177.74559 34210 ft 450 kts 281°
2026-05-08 01:45 25.62583 -177.81345 34210 ft 450 kts 281°
2026-05-08 01:46 25.63804 -177.88162 34210 ft 450 kts 281°
2026-05-08 01:46 25.65010 -177.94917 34211 ft 450 kts 281°
2026-05-08 01:47 25.66222 -178.01726 34210 ft 450 kts 281°
2026-05-08 01:47 25.67432 -178.08540 34210 ft 450 kts 281°
2026-05-08 01:48 25.69233 -178.18723 34211 ft 450 kts 281°
2026-05-08 01:48 25.70428 -178.25496 34212 ft 450 kts 281°
2026-05-08 01:49 25.71619 -178.32272 34211 ft 450 kts 281°
2026-05-08 01:49 25.72805 -178.39040 34211 ft 450 kts 281°
2026-05-08 01:50 25.73999 -178.45868 34209 ft 451 kts 281°
2026-05-08 01:50 25.75186 -178.52678 34211 ft 451 kts 281°
2026-05-08 01:51 25.76365 -178.59464 34213 ft 450 kts 282°
2026-05-08 01:51 25.77548 -178.66286 34216 ft 450 kts 281°
2026-05-08 01:52 25.78715 -178.73041 34221 ft 450 kts 281°
2026-05-08 01:52 25.79886 -178.79839 34222 ft 450 kts 281°
2026-05-08 01:53 25.81056 -178.86652 34221 ft 451 kts 281°
2026-05-08 01:53 25.82227 -178.93486 34215 ft 451 kts 281°
2026-05-08 01:54 25.83388 -179.00288 34213 ft 451 kts 281°
2026-05-08 01:54 25.84549 -179.07104 34212 ft 451 kts 281°
2026-05-08 01:55 25.85712 -179.13947 34213 ft 452 kts 281°
2026-05-08 01:55 25.86872 -179.20798 34214 ft 451 kts 281°
2026-05-08 01:56 25.88021 -179.27605 34214 ft 451 kts 281°
2026-05-08 01:56 25.89173 -179.34453 34213 ft 451 kts 281°
2026-05-08 01:57 25.90313 -179.41257 34215 ft 452 kts 282°
2026-05-08 01:57 25.91460 -179.48109 34214 ft 453 kts 282°
2026-05-08 01:58 25.92607 -179.54990 34216 ft 453 kts 281°
2026-05-08 01:58 25.93744 -179.61827 34215 ft 454 kts 281°
2026-05-08 01:59 25.94887 -179.68735 34218 ft 454 kts 281°
2026-05-08 01:59 25.96019 -179.75592 34218 ft 453 kts 281°
2026-05-08 02:00 25.97147 -179.82449 34217 ft 453 kts 281°
2026-05-08 02:00 25.98271 -179.89311 34217 ft 453 kts 281°
2026-05-08 02:01 25.99392 -179.96178 34217 ft 453 kts 281°
2026-05-08 02:01 26.00682 179.97235 34219 ft 453 kts 285°
2026-05-08 02:02 26.02347 179.90263 34218 ft 454 kts 286°
2026-05-08 02:02 26.03960 179.83524 34219 ft 454 kts 286°
2026-05-08 02:03 26.05580 179.76726 34217 ft 454 kts 286°
2026-05-08 02:03 26.07183 179.69974 34218 ft 454 kts 286°
2026-05-08 02:04 26.08781 179.63213 34217 ft 453 kts 286°
2026-05-08 02:04 26.10375 179.56457 34218 ft 453 kts 286°
2026-05-08 02:05 26.11975 179.49658 34220 ft 453 kts 286°
2026-05-08 02:05 26.13558 179.42915 34220 ft 453 kts 286°
2026-05-08 02:06 26.15142 179.36160 34220 ft 454 kts 286°
2026-05-08 02:06 26.16731 179.29361 34221 ft 453 kts 286°
2026-05-08 02:07 26.18314 179.22575 34220 ft 453 kts 285°
2026-05-08 02:07 26.19889 179.15808 34221 ft 453 kts 286°
2026-05-08 02:08 26.21457 179.09052 34221 ft 453 kts 286°
2026-05-08 02:08 26.23029 179.02263 34222 ft 453 kts 286°
2026-05-08 02:09 26.24596 178.95487 34221 ft 453 kts 286°
2026-05-08 02:09 26.26161 178.88704 34223 ft 453 kts 286°
2026-05-08 02:10 26.27726 178.81897 34224 ft 453 kts 286°
2026-05-08 02:10 26.29279 178.75131 34223 ft 452 kts 286°
2026-05-08 02:11 26.30823 178.68382 34224 ft 452 kts 286°
2026-05-08 02:11 26.32370 178.61615 34223 ft 452 kts 286°
2026-05-08 02:12 26.33912 178.54851 34225 ft 451 kts 286°
2026-05-08 02:12 26.35453 178.48079 34225 ft 450 kts 286°
2026-05-08 02:13 26.36981 178.41344 34225 ft 451 kts 286°
2026-05-08 02:13 26.38510 178.34587 34225 ft 451 kts 286°
2026-05-08 02:14 26.40032 178.27849 34225 ft 450 kts 285°
2026-05-08 02:14 26.41555 178.21083 34224 ft 450 kts 286°
2026-05-08 02:15 26.43070 178.14343 34227 ft 450 kts 286°
2026-05-08 02:15 26.44583 178.07599 34228 ft 450 kts 286°
2026-05-08 02:16 26.46096 178.00836 34230 ft 449 kts 286°
2026-05-08 02:16 26.47601 177.94098 34234 ft 448 kts 286°
2026-05-08 02:17 26.49099 177.87369 34237 ft 447 kts 286°
2026-05-08 02:17 26.50592 177.80644 34235 ft 447 kts 286°
2026-05-08 02:18 26.52080 177.73929 34235 ft 447 kts 286°
2026-05-08 02:18 26.53565 177.67218 34232 ft 447 kts 285°
2026-05-08 02:19 26.55049 177.60486 34231 ft 447 kts 285°
2026-05-08 02:19 26.56528 177.53758 34227 ft 445 kts 285°
2026-05-08 02:20 26.57995 177.47076 34226 ft 445 kts 285°
2026-05-08 02:20 26.59456 177.40407 34228 ft 445 kts 286°
2026-05-08 02:21 26.60923 177.33690 34229 ft 444 kts 285°
2026-05-08 02:21 26.62386 177.26981 34231 ft 444 kts 285°
2026-05-08 02:22 26.63838 177.20303 34231 ft 443 kts 285°
2026-05-08 02:22 26.65289 177.13609 34229 ft 444 kts 285°
2026-05-08 02:23 26.66732 177.06940 34231 ft 443 kts 285°
2026-05-08 02:23 26.68167 177.00288 34230 ft 442 kts 285°
2026-05-08 02:24 26.69600 176.93637 34233 ft 441 kts 285°
2026-05-08 02:24 26.71035 176.86958 34232 ft 441 kts 285°
2026-05-08 02:25 26.72461 176.80301 34233 ft 441 kts 285°
2026-05-08 02:25 26.73877 176.73679 34233 ft 441 kts 285°
2026-05-08 02:26 26.75301 176.66994 34228 ft 440 kts 285°
2026-05-08 02:26 26.76709 176.60378 34218 ft 440 kts 285°
2026-05-08 02:27 26.78122 176.53717 34217 ft 441 kts 285°
2026-05-08 02:27 26.79529 176.47072 34215 ft 440 kts 285°
2026-05-08 02:28 26.80930 176.40437 34216 ft 439 kts 285°
2026-05-08 02:28 26.82340 176.33743 34215 ft 440 kts 285°
2026-05-08 02:29 26.83733 176.27107 34216 ft 439 kts 285°
2026-05-08 02:29 26.85124 176.20477 34213 ft 438 kts 285°
2026-05-08 02:30 26.86510 176.13850 34214 ft 439 kts 285°
2026-05-08 02:30 26.87897 176.07194 34216 ft 438 kts 285°
2026-05-08 02:31 26.89268 176.00601 34214 ft 438 kts 285°
2026-05-08 02:31 26.90647 175.93962 34216 ft 438 kts 285°
2026-05-08 02:32 26.92017 175.87350 34216 ft 437 kts 285°
2026-05-08 02:32 26.93390 175.80698 34216 ft 438 kts 285°
2026-05-08 02:33 26.94756 175.74066 34216 ft 438 kts 285°
2026-05-08 02:33 26.96122 175.67424 34217 ft 438 kts 285°
2026-05-08 02:34 26.97484 175.60773 34218 ft 438 kts 285°
2026-05-08 02:34 26.98843 175.54129 34217 ft 439 kts 285°
2026-05-08 02:35 27.00191 175.47519 34222 ft 437 kts 285°
2026-05-08 02:35 27.01539 175.40883 34226 ft 438 kts 285°
2026-05-08 02:36 27.02886 175.34248 34229 ft 437 kts 284°
2026-05-08 02:36 27.04236 175.27576 34231 ft 438 kts 284°
2026-05-08 02:37 27.05570 175.20970 34236 ft 438 kts 284°
2026-05-08 02:37 27.06912 175.14310 34237 ft 438 kts 284°
2026-05-08 02:38 27.08244 175.07667 34238 ft 437 kts 284°
2026-05-08 02:38 27.09571 175.01036 34237 ft 436 kts 284°
2026-05-08 02:39 27.10896 174.94405 34237 ft 437 kts 284°
2026-05-08 02:39 27.12212 174.87799 34238 ft 437 kts 284°
2026-05-08 02:40 27.13534 174.81155 34238 ft 437 kts 284°
2026-05-08 02:40 27.14859 174.74469 34238 ft 438 kts 284°
2026-05-08 02:41 27.16170 174.67830 34239 ft 437 kts 284°
2026-05-08 02:41 27.17484 174.61163 34240 ft 436 kts 284°
2026-05-08 02:42 27.18786 174.54546 34240 ft 436 kts 284°
2026-05-08 02:42 27.20084 174.47926 34239 ft 436 kts 284°
2026-05-08 02:43 27.21385 174.41284 34240 ft 436 kts 284°
2026-05-08 02:43 27.22683 174.34633 34240 ft 436 kts 284°
2026-05-08 02:44 27.23974 174.27991 34241 ft 436 kts 284°
2026-05-08 02:44 27.25263 174.21346 34241 ft 436 kts 284°
2026-05-08 02:45 27.26547 174.14719 34242 ft 435 kts 284°
2026-05-08 02:45 27.27825 174.08099 34241 ft 435 kts 284°
2026-05-08 02:46 27.29099 174.01483 34243 ft 434 kts 283°
2026-05-08 02:46 27.30379 173.94823 34242 ft 435 kts 283°
2026-05-08 02:47 27.31648 173.88187 34240 ft 435 kts 284°
2026-05-08 02:47 27.32917 173.81541 34242 ft 436 kts 284°
2026-05-08 02:48 27.34178 173.74922 34239 ft 435 kts 284°
2026-05-08 02:48 27.35436 173.68297 34226 ft 436 kts 284°
2026-05-08 02:49 27.36702 173.61621 34225 ft 435 kts 284°
2026-05-08 02:49 27.37959 173.54967 34232 ft 434 kts 283°
2026-05-08 02:50 27.39197 173.48392 34232 ft 434 kts 284°
2026-05-08 02:50 27.40451 173.41716 34225 ft 435 kts 284°
2026-05-08 02:51 27.41698 173.35059 34222 ft 435 kts 284°
2026-05-08 02:51 27.42939 173.28415 34227 ft 435 kts 283°
2026-05-08 02:52 27.44173 173.21797 34223 ft 436 kts 283°
2026-05-08 02:52 27.45411 173.15131 34224 ft 435 kts 283°
2026-05-08 02:53 27.46645 173.08476 34223 ft 434 kts 283°
2026-05-08 02:53 27.47875 173.01817 34224 ft 434 kts 283°
2026-05-08 02:54 27.49093 172.95210 34228 ft 434 kts 283°
2026-05-08 02:54 27.50312 172.88577 34228 ft 435 kts 283°
2026-05-08 02:55 27.52143 172.78574 34228 ft 435 kts 283°
2026-05-08 02:56 27.53363 172.71890 34228 ft 436 kts 283°
2026-05-08 02:56 27.54579 172.65208 34228 ft 436 kts 283°
2026-05-08 02:57 27.55791 172.58531 34232 ft 437 kts 283°
2026-05-08 02:57 27.56996 172.51866 34232 ft 436 kts 283°
2026-05-08 02:58 27.58198 172.45198 34235 ft 435 kts 283°
2026-05-08 02:58 27.59396 172.38538 34237 ft 435 kts 284°
2026-05-08 02:59 27.60593 172.31863 34243 ft 436 kts 283°
2026-05-08 02:59 27.61787 172.25191 34240 ft 436 kts 283°
2026-05-08 03:00 27.62983 172.18481 34242 ft 436 kts 283°
2026-05-08 03:00 27.64177 172.11765 34242 ft 437 kts 283°
2026-05-08 03:01 27.65366 172.05058 34243 ft 437 kts 283°
2026-05-08 03:01 27.66550 171.98358 34240 ft 437 kts 283°
2026-05-08 03:02 27.67730 171.91670 34244 ft 437 kts 283°
2026-05-08 03:02 27.68909 171.84964 34248 ft 437 kts 283°
2026-05-08 03:03 27.70086 171.78252 34251 ft 437 kts 283°
2026-05-08 03:03 27.71253 171.71559 34252 ft 428 kts 283°
2026-05-08 03:04 27.72386 171.65044 34257 ft 426 kts 283°
2026-05-08 03:04 27.73528 171.58467 34259 ft 426 kts 283°
2026-05-08 03:05 27.74658 171.51942 34259 ft 427 kts 283°
2026-05-08 03:05 27.75790 171.45380 34261 ft 426 kts 283°
2026-05-08 03:06 27.76916 171.38849 34261 ft 426 kts 283°
2026-05-08 03:06 27.78044 171.32275 34267 ft 428 kts 283°
2026-05-08 03:07 27.79166 171.25713 34260 ft 427 kts 283°
2026-05-08 03:07 27.80294 171.19099 34254 ft 427 kts 283°
2026-05-08 03:08 27.81412 171.12523 34251 ft 428 kts 283°
2026-05-08 03:08 27.82528 171.05945 34250 ft 428 kts 284°
2026-05-08 03:09 27.83642 170.99365 34250 ft 429 kts 283°
2026-05-08 03:09 27.84753 170.92775 34251 ft 430 kts 283°
2026-05-08 03:10 27.85866 170.86147 34252 ft 431 kts 283°
2026-05-08 03:10 27.86983 170.79485 34249 ft 431 kts 283°
2026-05-08 03:11 27.88088 170.72870 34256 ft 430 kts 284°
2026-05-08 03:11 27.89190 170.66249 34258 ft 430 kts 283°
2026-05-08 03:12 27.90290 170.59621 34259 ft 430 kts 283°
2026-05-08 03:12 27.91382 170.53015 34258 ft 430 kts 283°
2026-05-08 03:13 27.92480 170.46359 34256 ft 431 kts 283°
2026-05-08 03:13 27.93568 170.39731 34256 ft 431 kts 283°
2026-05-08 03:14 27.94661 170.33057 34257 ft 431 kts 283°
2026-05-08 03:14 27.95753 170.26382 34257 ft 431 kts 283°
2026-05-08 03:15 27.96828 170.19754 34258 ft 431 kts 282°
2026-05-08 03:15 27.97903 170.13109 34257 ft 431 kts 283°
2026-05-08 03:16 27.98979 170.06450 34257 ft 432 kts 283°
2026-05-08 03:16 28.00355 169.99826 34255 ft 430 kts 288°
2026-05-08 03:17 28.02288 169.93489 34257 ft 429 kts 293°
2026-05-08 03:17 28.04471 169.87187 34256 ft 429 kts 293°
2026-05-08 03:18 28.06649 169.80899 34257 ft 429 kts 293°
2026-05-08 03:18 28.08809 169.74637 34256 ft 428 kts 293°
2026-05-08 03:19 28.10962 169.68381 34257 ft 428 kts 293°
2026-05-08 03:19 28.13115 169.62112 34259 ft 428 kts 293°
2026-05-08 03:20 28.15264 169.55846 34257 ft 428 kts 293°
2026-05-08 03:20 28.17419 169.49550 34262 ft 428 kts 293°
2026-05-08 03:21 28.19556 169.43297 34262 ft 428 kts 294°
2026-05-08 03:21 28.21698 169.37015 34261 ft 427 kts 294°
2026-05-08 03:22 28.23841 169.30721 34262 ft 427 kts 293°
2026-05-08 03:22 28.25969 169.24460 34261 ft 427 kts 293°
2026-05-08 03:23 28.28089 169.18214 34261 ft 427 kts 293°
2026-05-08 03:23 28.30213 169.11943 34263 ft 426 kts 293°
2026-05-08 03:24 28.32339 169.05652 34261 ft 426 kts 293°
2026-05-08 03:24 28.34438 168.99432 34264 ft 426 kts 293°
2026-05-08 03:25 28.36562 168.93132 34264 ft 426 kts 293°
2026-05-08 03:25 28.38664 168.86881 34266 ft 426 kts 293°
2026-05-08 03:26 28.40762 168.80635 34266 ft 425 kts 293°
2026-05-08 03:26 28.42866 168.74359 34267 ft 426 kts 293°
2026-05-08 03:27 28.44972 168.68060 34269 ft 426 kts 293°
2026-05-08 03:27 28.47072 168.61774 34269 ft 425 kts 293°
2026-05-08 03:28 28.49162 168.55504 34266 ft 425 kts 293°
2026-05-08 03:28 28.51248 168.49239 34261 ft 425 kts 293°
2026-05-08 03:29 28.53334 168.42960 34258 ft 426 kts 293°
2026-05-08 03:29 28.55421 168.36664 34258 ft 426 kts 293°
2026-05-08 03:30 28.58531 168.27261 34258 ft 426 kts 292°
2026-05-08 03:31 28.62678 168.14694 34259 ft 425 kts 292°
2026-05-08 03:32 28.65792 168.05223 34261 ft 426 kts 292°
2026-05-08 03:32 28.67854 167.98930 34268 ft 425 kts 292°
2026-05-08 03:33 28.69909 167.92659 34269 ft 425 kts 292°
2026-05-08 03:33 28.71983 167.86314 34271 ft 426 kts 292°
2026-05-08 03:34 28.74043 167.79999 34271 ft 425 kts 293°
2026-05-08 03:34 28.76090 167.73714 34272 ft 425 kts 293°
2026-05-08 03:35 28.78139 167.67406 34273 ft 425 kts 293°
2026-05-08 03:35 28.80199 167.61063 34274 ft 426 kts 293°
2026-05-08 03:36 28.82254 167.54719 34274 ft 427 kts 293°
2026-05-08 03:36 28.84294 167.48410 34275 ft 426 kts 293°
2026-05-08 03:37 28.86345 167.42055 34275 ft 427 kts 293°
2026-05-08 03:37 28.88382 167.35730 34276 ft 426 kts 293°
2026-05-08 03:38 28.90420 167.29388 34276 ft 426 kts 292°
2026-05-08 03:38 28.92444 167.23085 34276 ft 426 kts 292°
2026-05-08 03:39 28.94479 167.16733 34276 ft 427 kts 292°
2026-05-08 03:39 28.96519 167.10352 34276 ft 428 kts 292°
2026-05-08 03:40 28.98552 167.03983 34278 ft 428 kts 292°
2026-05-08 03:40 29.00577 166.97621 34278 ft 428 kts 293°
2026-05-08 03:41 29.02611 166.91228 34278 ft 427 kts 293°
2026-05-08 03:41 29.04625 166.84886 34278 ft 427 kts 292°
2026-05-08 03:42 29.06648 166.78500 34277 ft 426 kts 292°
2026-05-08 03:42 29.08662 166.72130 34278 ft 426 kts 292°
2026-05-08 03:43 29.10677 166.65739 34280 ft 426 kts 292°
2026-05-08 03:43 29.12672 166.59407 34278 ft 427 kts 293°
2026-05-08 03:44 29.14687 166.52994 34277 ft 427 kts 293°
2026-05-08 03:44 29.16690 166.46616 34272 ft 427 kts 292°
2026-05-08 03:45 29.18680 166.40262 34270 ft 427 kts 292°
2026-05-08 03:45 29.20681 166.33864 34270 ft 426 kts 292°
2026-05-08 03:46 29.22659 166.27519 34267 ft 426 kts 292°
2026-05-08 03:46 29.24649 166.21127 34264 ft 426 kts 292°
2026-05-08 03:47 29.26621 166.14784 34264 ft 426 kts 292°
2026-05-08 03:47 29.28605 166.08392 34265 ft 427 kts 292°
2026-05-08 03:48 29.30580 166.02011 34265 ft 427 kts 292°
2026-05-08 03:48 29.32557 165.95613 34265 ft 427 kts 292°
2026-05-08 03:49 29.34538 165.89192 34266 ft 427 kts 292°
2026-05-08 03:49 29.36494 165.82837 34267 ft 426 kts 292°
2026-05-08 03:50 29.38464 165.76427 34261 ft 426 kts 292°
2026-05-08 03:50 29.40426 165.70023 34268 ft 426 kts 292°
2026-05-08 03:51 29.42377 165.63647 34274 ft 426 kts 292°
2026-05-08 03:51 29.44339 165.57228 34270 ft 426 kts 292°
2026-05-08 03:52 29.46293 165.50816 34275 ft 426 kts 292°
2026-05-08 03:52 29.48248 165.44395 34278 ft 426 kts 292°
2026-05-08 03:53 29.50195 165.37981 34273 ft 427 kts 292°
2026-05-08 03:53 29.52124 165.31616 34273 ft 426 kts 291°
2026-05-08 03:54 29.54070 165.25180 34270 ft 426 kts 291°
2026-05-08 03:54 29.56008 165.18759 34269 ft 426 kts 291°
2026-05-08 03:55 29.57933 165.12372 34271 ft 425 kts 291°
2026-05-08 03:55 29.59870 165.05931 34276 ft 426 kts 291°
2026-05-08 03:56 29.61790 164.99533 34276 ft 427 kts 291°
2026-05-08 03:56 29.63717 164.93102 34278 ft 426 kts 291°
2026-05-08 03:57 29.65637 164.86675 34278 ft 427 kts 291°
2026-05-08 03:57 29.67565 164.80211 34278 ft 427 kts 291°
2026-05-08 03:58 29.69469 164.73814 34279 ft 427 kts 292°
2026-05-08 03:58 29.71390 164.67351 34278 ft 426 kts 291°
2026-05-08 03:59 29.73301 164.60908 34278 ft 426 kts 291°
2026-05-08 03:59 29.75207 164.54466 34278 ft 426 kts 291°
2026-05-08 04:00 29.77109 164.48022 34278 ft 427 kts 291°
2026-05-08 04:00 29.79015 164.41556 34278 ft 427 kts 291°
2026-05-08 04:01 29.80908 164.35123 34277 ft 427 kts 291°
2026-05-08 04:01 29.82809 164.28645 34276 ft 427 kts 291°
2026-05-08 04:02 29.84701 164.22183 34276 ft 427 kts 291°
2026-05-08 04:02 29.86602 164.15681 34276 ft 427 kts 291°
2026-05-08 04:03 29.87971 164.10991 34276 ft 428 kts 291°
2026-05-08 04:03 29.90804 164.01260 34275 ft 428 kts 291°
2026-05-08 04:04 29.92692 163.94759 34274 ft 428 kts 291°
2026-05-08 04:04 29.94577 163.88254 34273 ft 428 kts 291°
2026-05-08 04:05 29.96448 163.81784 34274 ft 428 kts 291°
2026-05-08 04:05 29.98330 163.75266 34272 ft 428 kts 291°
2026-05-08 04:06 30.00194 163.68791 34266 ft 428 kts 291°
2026-05-08 04:06 30.02065 163.62280 34269 ft 428 kts 291°
2026-05-08 04:07 30.03943 163.55731 34263 ft 428 kts 291°
2026-05-08 04:07 30.05798 163.49249 34258 ft 428 kts 290°
2026-05-08 04:08 30.07670 163.42697 34257 ft 429 kts 290°
2026-05-08 04:08 30.09527 163.36182 34258 ft 429 kts 290°
2026-05-08 04:09 30.11389 163.29633 34257 ft 430 kts 290°
2026-05-08 04:09 30.13247 163.23080 34258 ft 430 kts 290°
2026-05-08 04:10 30.15093 163.16565 34255 ft 430 kts 290°
2026-05-08 04:10 30.16951 163.09992 34256 ft 429 kts 290°
2026-05-08 04:11 30.18794 163.03455 34258 ft 429 kts 290°
2026-05-08 04:11 30.20641 162.96887 34260 ft 430 kts 290°
2026-05-08 04:12 30.22482 162.90329 34264 ft 430 kts 290°
2026-05-08 04:12 30.24310 162.83804 34264 ft 431 kts 290°
2026-05-08 04:13 30.26160 162.77187 34272 ft 431 kts 290°
2026-05-08 04:13 30.27988 162.70633 34269 ft 431 kts 290°
2026-05-08 04:14 30.29821 162.64049 34263 ft 431 kts 290°
2026-05-08 04:14 30.31660 162.57430 34262 ft 431 kts 290°
2026-05-08 04:15 30.33484 162.50847 34263 ft 431 kts 290°
2026-05-08 04:15 30.35300 162.44276 34265 ft 431 kts 290°
2026-05-08 04:16 30.37121 162.37679 34267 ft 432 kts 290°
2026-05-08 04:16 30.38937 162.31085 34269 ft 432 kts 289°
2026-05-08 04:17 30.40766 162.24428 34266 ft 432 kts 289°
2026-05-08 04:17 30.42576 162.17825 34262 ft 432 kts 289°
2026-05-08 04:18 30.44379 162.11230 34262 ft 431 kts 289°
2026-05-08 04:18 30.46184 162.04616 34258 ft 431 kts 289°
2026-05-08 04:19 30.47988 161.97995 34260 ft 432 kts 289°
2026-05-08 04:19 30.49787 161.91371 34263 ft 433 kts 289°
2026-05-08 04:20 30.51591 161.84715 34264 ft 433 kts 289°
2026-05-08 04:20 30.53383 161.78090 34256 ft 433 kts 289°
2026-05-08 04:21 30.55176 161.71446 34254 ft 432 kts 289°
2026-05-08 04:21 30.56969 161.64786 34249 ft 432 kts 289°
2026-05-08 04:22 30.58752 161.58151 34244 ft 432 kts 289°
2026-05-08 04:22 30.60537 161.51494 34247 ft 432 kts 289°
2026-05-08 04:23 30.62309 161.44864 34251 ft 433 kts 289°
2026-05-08 04:23 30.64087 161.38200 34253 ft 432 kts 289°
2026-05-08 04:24 30.65853 161.31566 34255 ft 433 kts 288°
2026-05-08 04:24 30.67621 161.24910 34256 ft 433 kts 288°
2026-05-08 04:25 30.69385 161.18256 34258 ft 432 kts 288°
2026-05-08 04:25 30.71152 161.11575 34258 ft 432 kts 288°
2026-05-08 04:26 30.72899 161.04944 34257 ft 432 kts 288°
2026-05-08 04:26 30.74653 160.98274 34257 ft 432 kts 288°
2026-05-08 04:27 30.76399 160.91629 34257 ft 432 kts 288°
2026-05-08 04:27 30.78146 160.84966 34256 ft 432 kts 288°
2026-05-08 04:28 30.79892 160.78284 34254 ft 431 kts 288°
2026-05-08 04:28 30.81627 160.71634 34252 ft 431 kts 288°
2026-05-08 04:29 30.83360 160.64964 34250 ft 431 kts 288°
2026-05-08 04:29 30.85086 160.58313 34248 ft 431 kts 288°
2026-05-08 04:30 30.86807 160.51663 34249 ft 431 kts 288°
2026-05-08 04:30 30.88520 160.45032 34253 ft 431 kts 287°
2026-05-08 04:31 30.90243 160.38341 34255 ft 431 kts 287°
2026-05-08 04:31 30.91959 160.31657 34255 ft 431 kts 287°
2026-05-08 04:32 30.93663 160.25009 34251 ft 431 kts 287°
2026-05-08 04:32 30.95367 160.18341 34245 ft 430 kts 287°
2026-05-08 04:33 30.97065 160.11667 34240 ft 430 kts 286°
2026-05-08 04:33 30.98756 160.05006 34239 ft 430 kts 287°
2026-05-08 04:34 31.00620 159.98398 34239 ft 431 kts 291°
2026-05-08 04:34 31.02868 159.91925 34238 ft 430 kts 292°
2026-05-08 04:35 31.05125 159.85489 34236 ft 431 kts 292°
2026-05-08 04:35 31.07386 159.79016 34233 ft 431 kts 291°
2026-05-08 04:36 31.09622 159.72594 34231 ft 432 kts 291°
2026-05-08 04:36 31.11879 159.66090 34230 ft 431 kts 291°
2026-05-08 04:37 31.14115 159.59637 34229 ft 431 kts 291°
2026-05-08 04:37 31.16357 159.53151 34229 ft 431 kts 291°
2026-05-08 04:38 31.18582 159.46706 34228 ft 431 kts 291°
2026-05-08 04:38 31.20818 159.40213 34232 ft 431 kts 291°
2026-05-08 04:39 31.23043 159.33740 34235 ft 432 kts 291°
2026-05-08 04:39 31.25276 159.27234 34234 ft 432 kts 291°
2026-05-08 04:40 31.27495 159.20754 34233 ft 431 kts 291°
2026-05-08 04:40 31.29717 159.14255 34232 ft 432 kts 291°
2026-05-08 04:41 31.31929 159.07768 34233 ft 431 kts 291°
2026-05-08 04:41 31.34160 159.01216 34235 ft 432 kts 291°
2026-05-08 04:42 31.36364 158.94730 34235 ft 431 kts 291°
2026-05-08 04:42 31.38569 158.88226 34233 ft 432 kts 290°
2026-05-08 04:43 31.40777 158.81705 34235 ft 432 kts 291°
2026-05-08 04:43 31.42979 158.75188 34231 ft 433 kts 290°
2026-05-08 04:44 31.45194 158.68617 34229 ft 432 kts 290°
2026-05-08 04:44 31.47386 158.62102 34229 ft 431 kts 290°
2026-05-08 04:45 31.49575 158.55583 34230 ft 430 kts 290°
2026-05-08 04:45 31.51767 158.49040 34225 ft 431 kts 290°
2026-05-08 04:46 31.53950 158.42514 34225 ft 432 kts 290°
2026-05-08 04:46 31.56139 158.35959 34223 ft 432 kts 290°
2026-05-08 04:47 31.58308 158.29446 34226 ft 432 kts 290°
2026-05-08 04:47 31.60490 158.22882 34225 ft 432 kts 289°
2026-05-08 04:48 31.62670 158.16316 34229 ft 432 kts 289°
2026-05-08 04:48 31.64841 158.09763 34231 ft 432 kts 289°
2026-05-08 04:49 31.67001 158.03221 34231 ft 433 kts 289°
2026-05-08 04:49 31.69169 157.96649 34230 ft 433 kts 289°
2026-05-08 04:50 31.71334 157.90073 34223 ft 433 kts 289°
2026-05-08 04:50 31.73500 157.83484 34213 ft 432 kts 289°
2026-05-08 04:51 31.75648 157.76924 34213 ft 432 kts 289°
2026-05-08 04:51 31.77792 157.70373 34211 ft 431 kts 289°
2026-05-08 04:52 31.79942 157.63788 34210 ft 432 kts 289°
2026-05-08 04:52 31.82085 157.57205 34207 ft 432 kts 289°
2026-05-08 04:53 31.84227 157.50623 34205 ft 433 kts 288°
2026-05-08 04:53 31.86360 157.44051 34206 ft 432 kts 289°
2026-05-08 04:54 31.88501 157.37436 34205 ft 433 kts 288°
2026-05-08 04:54 31.90624 157.30867 34201 ft 432 kts 288°
2026-05-08 04:55 31.92747 157.24289 34201 ft 433 kts 288°
2026-05-08 04:55 31.94871 157.17683 34197 ft 432 kts 288°
2026-05-08 04:56 31.97004 157.11044 34197 ft 433 kts 288°
2026-05-08 04:56 31.99126 157.04417 34196 ft 434 kts 287°
2026-05-08 04:57 32.01248 156.97784 34197 ft 434 kts 288°
2026-05-08 04:57 32.03369 156.91141 34197 ft 433 kts 288°
2026-05-08 04:58 32.05479 156.84515 34197 ft 432 kts 288°
2026-05-08 04:58 32.07578 156.77913 34196 ft 431 kts 287°
2026-05-08 04:59 32.09677 156.71289 34201 ft 431 kts 288°
2026-05-08 04:59 32.11747 156.64754 34206 ft 429 kts 287°
2026-05-08 05:00 32.13835 156.58144 34206 ft 429 kts 287°
2026-05-08 05:00 32.15918 156.51532 34206 ft 429 kts 287°
2026-05-08 05:01 32.17984 156.44961 34204 ft 428 kts 287°
2026-05-08 05:01 32.20038 156.38417 34202 ft 428 kts 287°
2026-05-08 05:02 32.22098 156.31834 34203 ft 427 kts 287°
2026-05-08 05:02 32.24150 156.25275 34201 ft 425 kts 287°
2026-05-08 05:03 32.26188 156.18742 34199 ft 425 kts 286°
2026-05-08 05:03 32.28214 156.12230 34198 ft 425 kts 287°
2026-05-08 05:04 32.30244 156.05696 34197 ft 424 kts 286°
2026-05-08 05:04 32.32262 155.99185 34196 ft 423 kts 287°
2026-05-08 05:05 32.34283 155.92642 34193 ft 424 kts 287°
2026-05-08 05:05 32.36288 155.86154 34189 ft 423 kts 286°
2026-05-08 05:06 32.38296 155.79629 34187 ft 422 kts 286°
2026-05-08 05:06 32.40304 155.73097 34184 ft 422 kts 286°
2026-05-08 05:07 32.42309 155.66559 34184 ft 423 kts 286°
2026-05-08 05:07 32.44307 155.60034 34182 ft 423 kts 286°
2026-05-08 05:08 32.46291 155.53536 34179 ft 423 kts 286°
2026-05-08 05:08 32.48280 155.47006 34176 ft 423 kts 286°
2026-05-08 05:09 32.50274 155.40449 34176 ft 422 kts 286°
2026-05-08 05:09 32.52253 155.33926 34177 ft 421 kts 285°
2026-05-08 05:10 32.55207 155.24164 34175 ft 421 kts 285°
2026-05-08 05:11 32.57177 155.17638 34175 ft 422 kts 285°
2026-05-08 05:11 32.59143 155.11108 34175 ft 422 kts 285°
2026-05-08 05:12 32.61115 155.04547 34176 ft 422 kts 285°
2026-05-08 05:12 32.63086 154.97971 34176 ft 423 kts 285°
2026-05-08 05:13 32.65035 154.91458 34174 ft 423 kts 285°
2026-05-08 05:13 32.66996 154.84888 34174 ft 422 kts 285°
2026-05-08 05:14 32.68951 154.78320 34173 ft 421 kts 285°
2026-05-08 05:14 32.70886 154.71811 34171 ft 420 kts 285°
2026-05-08 05:15 32.72829 154.65263 34170 ft 420 kts 284°
2026-05-08 05:15 32.74752 154.58765 34170 ft 420 kts 284°
2026-05-08 05:16 32.76689 154.52208 34169 ft 420 kts 284°
2026-05-08 05:16 32.78611 154.45680 34167 ft 420 kts 284°
2026-05-08 05:17 32.80530 154.39154 34163 ft 421 kts 284°
2026-05-08 05:17 32.82451 154.32605 34168 ft 420 kts 284°
2026-05-08 05:18 32.84372 154.26039 34166 ft 420 kts 284°
2026-05-08 05:18 32.86279 154.19513 34165 ft 420 kts 284°
2026-05-08 05:19 32.88193 154.12944 34162 ft 419 kts 284°
2026-05-08 05:19 32.90091 154.06413 34163 ft 420 kts 284°
2026-05-08 05:20 32.91983 153.99895 34161 ft 419 kts 284°
2026-05-08 05:20 32.93885 153.93324 34155 ft 418 kts 284°
2026-05-08 05:21 32.95764 153.86819 34156 ft 419 kts 284°
2026-05-08 05:21 32.97654 153.80264 34156 ft 419 kts 284°
2026-05-08 05:22 32.99538 153.73708 34156 ft 418 kts 283°
2026-05-08 05:22 33.01417 153.67157 34155 ft 418 kts 284°
2026-05-08 05:23 33.03281 153.60649 34155 ft 418 kts 283°
2026-05-08 05:23 33.05157 153.54085 34151 ft 418 kts 283°
2026-05-08 05:24 33.07019 153.47542 34151 ft 417 kts 283°
2026-05-08 05:24 33.08874 153.41023 34144 ft 417 kts 283°
2026-05-08 05:25 33.10716 153.34532 34138 ft 417 kts 283°
2026-05-08 05:25 33.12575 153.27959 34140 ft 416 kts 283°
2026-05-08 05:26 33.14418 153.21433 34138 ft 416 kts 283°
2026-05-08 05:26 33.16260 153.14893 34134 ft 416 kts 283°
2026-05-08 05:27 33.18097 153.08366 34131 ft 416 kts 283°
2026-05-08 05:27 33.19929 153.01836 34130 ft 416 kts 282°
2026-05-08 05:28 33.21758 152.95296 34130 ft 416 kts 282°
2026-05-08 05:28 33.23580 152.88768 34126 ft 416 kts 282°
2026-05-08 05:29 33.25401 152.82233 34126 ft 416 kts 282°
2026-05-08 05:29 33.27226 152.75659 34125 ft 415 kts 283°
2026-05-08 05:30 33.29032 152.69153 34121 ft 415 kts 282°
2026-05-08 05:30 33.30843 152.62604 34120 ft 414 kts 283°
2026-05-08 05:31 33.32637 152.56108 34119 ft 413 kts 283°
2026-05-08 05:31 33.34427 152.49612 34117 ft 413 kts 282°
2026-05-08 05:32 33.36214 152.43102 34115 ft 414 kts 282°
2026-05-08 05:32 33.37999 152.36591 34114 ft 413 kts 282°
2026-05-08 05:33 33.39784 152.30063 34111 ft 413 kts 282°
2026-05-08 05:33 33.41563 152.23540 34109 ft 412 kts 282°
2026-05-08 05:34 33.43337 152.17026 34109 ft 412 kts 282°
2026-05-08 05:34 33.45103 152.10518 34104 ft 412 kts 282°
2026-05-08 05:35 33.46864 152.04019 34106 ft 413 kts 282°
2026-05-08 05:35 33.48624 151.97501 34105 ft 412 kts 282°
2026-05-08 05:36 33.50377 151.91003 34104 ft 412 kts 282°
2026-05-08 05:36 33.52133 151.84477 34102 ft 412 kts 282°
2026-05-08 05:37 33.53877 151.77983 34104 ft 412 kts 282°
2026-05-08 05:37 33.55626 151.71448 34102 ft 412 kts 282°
2026-05-08 05:38 33.57368 151.64926 34102 ft 412 kts 282°
2026-05-08 05:38 33.59107 151.58400 34103 ft 411 kts 283°
2026-05-08 05:39 33.60842 151.51875 34103 ft 411 kts 283°
2026-05-08 05:39 33.62561 151.45395 34101 ft 411 kts 283°
2026-05-08 05:40 33.64287 151.38870 34101 ft 411 kts 283°
2026-05-08 05:40 33.66009 151.32342 34101 ft 411 kts 283°
2026-05-08 05:41 33.67733 151.25800 34103 ft 411 kts 283°
2026-05-08 05:41 33.69446 151.19278 34103 ft 411 kts 283°
2026-05-08 05:42 33.71165 151.12715 34104 ft 412 kts 283°
2026-05-08 05:42 33.72876 151.06172 34099 ft 412 kts 283°
2026-05-08 05:43 33.74575 150.99657 34098 ft 412 kts 283°
2026-05-08 05:43 33.76286 150.93088 34099 ft 412 kts 283°
2026-05-08 05:44 33.77989 150.86526 34094 ft 412 kts 283°
2026-05-08 05:44 33.79685 150.79970 34094 ft 411 kts 283°
2026-05-08 05:45 33.81373 150.73434 34092 ft 411 kts 283°
2026-05-08 05:45 33.83055 150.66901 34087 ft 412 kts 283°
2026-05-08 05:46 33.84743 150.60332 34083 ft 412 kts 283°
2026-05-08 05:46 33.86433 150.53740 34080 ft 413 kts 283°
2026-05-08 05:47 33.88115 150.47163 34086 ft 413 kts 283°
2026-05-08 05:47 33.89792 150.40582 34088 ft 412 kts 283°
2026-05-08 05:48 33.91465 150.34006 34087 ft 412 kts 283°
2026-05-08 05:48 33.93141 150.27391 34084 ft 412 kts 283°
2026-05-08 05:49 33.94794 150.20848 34083 ft 412 kts 283°
2026-05-08 05:49 33.96457 150.14246 34077 ft 413 kts 283°
2026-05-08 05:50 33.98121 150.07623 34074 ft 413 kts 283°
2026-05-08 05:50 33.99830 150.01031 34074 ft 414 kts 285°
2026-05-08 05:51 34.01951 149.94608 34071 ft 416 kts 289°
2026-05-08 05:51 34.04215 149.88178 34075 ft 416 kts 289°
2026-05-08 05:52 34.06458 149.81782 34067 ft 417 kts 289°
2026-05-08 05:52 34.08706 149.75354 34071 ft 417 kts 289°
2026-05-08 05:53 34.10948 149.68930 34061 ft 416 kts 289°
2026-05-08 05:53 34.13193 149.62485 34052 ft 417 kts 289°
2026-05-08 05:54 34.15422 149.56068 34055 ft 417 kts 289°
2026-05-08 05:54 34.17664 149.49605 34062 ft 417 kts 289°
2026-05-08 05:55 34.19891 149.43170 34053 ft 417 kts 289°
2026-05-08 05:55 34.22117 149.36722 34048 ft 418 kts 289°
2026-05-08 05:56 34.24349 149.30246 34055 ft 417 kts 288°
2026-05-08 05:56 34.26559 149.23816 34046 ft 416 kts 288°
2026-05-08 05:57 34.28778 149.17354 34049 ft 416 kts 288°
2026-05-08 05:57 34.30979 149.10927 34044 ft 417 kts 288°
2026-05-08 05:58 34.33188 149.04462 34038 ft 417 kts 288°
2026-05-08 05:58 34.35407 148.97957 34033 ft 418 kts 288°
2026-05-08 05:59 34.37617 148.91466 34030 ft 419 kts 288°
2026-05-08 05:59 34.39824 148.84966 34029 ft 419 kts 288°
2026-05-08 06:00 34.42023 148.78473 34016 ft 418 kts 289°
2026-05-08 06:00 34.44220 148.71977 34014 ft 419 kts 289°
2026-05-08 06:01 34.46421 148.65457 34015 ft 418 kts 289°
2026-05-08 06:01 34.48619 148.58939 34010 ft 417 kts 289°
2026-05-08 06:02 34.50791 148.52473 34013 ft 417 kts 289°
2026-05-08 06:02 34.52979 148.45952 34000 ft 418 kts 289°
2026-05-08 06:03 34.55159 148.39436 34001 ft 418 kts 289°
2026-05-08 06:03 34.57340 148.32909 34015 ft 418 kts 288°
2026-05-08 06:04 34.59513 148.26384 34012 ft 418 kts 288°
2026-05-08 06:04 34.61680 148.19870 34006 ft 418 kts 288°
2026-05-08 06:05 34.63845 148.13350 34004 ft 418 kts 289°
2026-05-08 06:05 34.66001 148.06839 34006 ft 419 kts 289°
2026-05-08 06:06 34.68167 148.00282 34004 ft 419 kts 289°
2026-05-08 06:06 34.70335 147.93710 33999 ft 418 kts 289°
2026-05-08 06:07 34.72477 147.87199 33995 ft 418 kts 289°
2026-05-08 06:07 34.74635 147.80627 33982 ft 418 kts 289°
2026-05-08 06:08 34.76783 147.74075 33975 ft 418 kts 289°
2026-05-08 06:08 34.78918 147.67549 33973 ft 418 kts 288°
2026-05-08 06:09 34.81059 147.60985 33971 ft 418 kts 288°
2026-05-08 06:09 34.83200 147.54402 33968 ft 418 kts 289°
2026-05-08 06:10 34.85316 147.47891 33965 ft 418 kts 289°
2026-05-08 06:10 34.87452 147.41301 33964 ft 417 kts 289°
2026-05-08 06:11 34.89576 147.34735 33962 ft 417 kts 288°
2026-05-08 06:11 34.91685 147.28201 33958 ft 416 kts 288°
2026-05-08 06:12 34.93798 147.21639 33953 ft 416 kts 288°
2026-05-08 06:12 34.95911 147.15062 33953 ft 416 kts 287°
2026-05-08 06:13 34.98006 147.08527 33955 ft 415 kts 288°
2026-05-08 06:13 35.00090 147.02008 33950 ft 415 kts 287°
2026-05-08 06:14 35.02183 146.95451 33950 ft 414 kts 287°
2026-05-08 06:14 35.04258 146.88936 33949 ft 414 kts 287°
2026-05-08 06:15 35.06330 146.82413 33945 ft 414 kts 287°
2026-05-08 06:15 35.08411 146.75847 33938 ft 414 kts 287°
2026-05-08 06:16 35.10477 146.69318 33939 ft 414 kts 287°
2026-05-08 06:16 35.12548 146.62756 33927 ft 415 kts 287°
2026-05-08 06:17 35.15640 146.52930 33919 ft 415 kts 287°
2026-05-08 06:17 35.17701 146.46359 33918 ft 415 kts 287°
2026-05-08 06:18 35.19765 146.39766 33911 ft 415 kts 287°
2026-05-08 06:18 35.21813 146.33202 33910 ft 414 kts 286°
2026-05-08 06:19 35.23845 146.26675 33901 ft 414 kts 286°
2026-05-08 06:19 35.25888 146.20088 33900 ft 413 kts 286°
2026-05-08 06:20 35.27918 146.13536 33901 ft 413 kts 285°
2026-05-08 06:20 35.29799 146.06963 33896 ft 411 kts 282°
2026-05-08 06:21 35.31099 146.00206 33893 ft 408 kts 276°
2026-05-08 06:21 35.31769 145.93343 33891 ft 405 kts 270°
2026-05-08 06:22 35.31819 145.86493 33892 ft 403 kts 265°
2026-05-08 06:22 35.31623 145.79646 33893 ft 403 kts 265°
2026-05-08 06:23 35.31418 145.72821 33887 ft 402 kts 265°
2026-05-08 06:23 35.31210 145.66034 33887 ft 401 kts 265°
2026-05-08 06:24 35.30998 145.59212 33880 ft 400 kts 265°
2026-05-08 06:24 35.30782 145.52458 33884 ft 400 kts 265°
2026-05-08 06:25 35.30561 145.45660 33878 ft 399 kts 265°
2026-05-08 06:25 35.30339 145.38933 33878 ft 398 kts 265°
2026-05-08 06:26 35.30110 145.32138 33883 ft 398 kts 265°
2026-05-08 06:26 35.29878 145.25401 33874 ft 397 kts 265°
2026-05-08 06:27 35.29642 145.18684 33877 ft 396 kts 265°
2026-05-08 06:27 35.29404 145.11928 33873 ft 396 kts 265°
2026-05-08 06:28 35.29259 145.05225 33870 ft 397 kts 269°
2026-05-08 06:28 35.29755 144.98454 33868 ft 400 kts 275°
2026-05-08 06:29 35.30967 144.91797 33858 ft 404 kts 282°
2026-05-08 06:29 35.32898 144.85330 33848 ft 409 kts 288°
2026-05-08 06:30 35.35273 144.78992 33847 ft 410 kts 289°
2026-05-08 06:30 35.37658 144.72682 33842 ft 409 kts 289°
2026-05-08 06:31 35.40043 144.66373 33845 ft 409 kts 289°
2026-05-08 06:31 35.42427 144.60051 33842 ft 409 kts 289°
2026-05-08 06:32 35.44804 144.53746 33839 ft 410 kts 289°
2026-05-08 06:32 35.47177 144.47433 33839 ft 410 kts 289°
2026-05-08 06:33 35.49557 144.41084 33832 ft 409 kts 289°
2026-05-08 06:33 35.51924 144.34763 33823 ft 409 kts 288°
2026-05-08 06:34 35.54289 144.28430 33821 ft 409 kts 288°
2026-05-08 06:34 35.56654 144.22084 33825 ft 409 kts 288°
2026-05-08 06:35 35.59008 144.15753 33819 ft 409 kts 288°
2026-05-08 06:35 35.61368 144.09398 33813 ft 409 kts 288°
2026-05-08 06:36 35.63724 144.03033 33810 ft 410 kts 288°
2026-05-08 06:36 35.66079 143.96670 33807 ft 411 kts 288°
2026-05-08 06:37 35.68435 143.90280 33802 ft 411 kts 289°
2026-05-08 06:37 35.70780 143.83907 33806 ft 411 kts 288°
2026-05-08 06:38 35.73136 143.77492 33802 ft 411 kts 288°
2026-05-08 06:38 35.75466 143.71130 33798 ft 412 kts 288°
2026-05-08 06:39 35.77742 143.64899 33792 ft 411 kts 288°
2026-05-08 06:39 35.80082 143.58490 33788 ft 411 kts 288°
2026-05-08 06:40 35.82411 143.52095 33786 ft 412 kts 288°
2026-05-08 06:40 35.84748 143.45670 33776 ft 412 kts 288°
2026-05-08 06:41 35.87085 143.39229 33778 ft 413 kts 288°
2026-05-08 06:41 35.89397 143.32747 33772 ft 411 kts 285°
2026-05-08 06:42 35.91076 143.26092 33768 ft 405 kts 277°
2026-05-08 06:42 35.91909 143.19310 33761 ft 400 kts 270°
2026-05-08 06:43 35.91915 143.12524 33753 ft 396 kts 263°
2026-05-08 06:43 35.91312 143.05821 33479 ft 395 kts 260°
2026-05-08 06:44 35.90982 143.02460 33216 ft 394 kts 260°
2026-05-08 06:44 35.90652 142.99129 32956 ft 392 kts 260°
2026-05-08 06:44 35.90321 142.95795 32682 ft 389 kts 260°
2026-05-08 06:44 35.89991 142.92496 32422 ft 388 kts 260°
2026-05-08 06:45 35.89661 142.89229 32160 ft 388 kts 260°
2026-05-08 06:45 35.89330 142.85947 31898 ft 388 kts 259°
2026-05-08 06:45 35.88993 142.82637 31631 ft 389 kts 260°
2026-05-08 06:45 35.88661 142.79355 31365 ft 389 kts 260°
2026-05-08 06:46 35.88322 142.76039 31099 ft 389 kts 260°
2026-05-08 06:46 35.87984 142.72737 30775 ft 390 kts 260°
2026-05-08 06:46 35.87648 142.69440 30277 ft 392 kts 260°
2026-05-08 06:46 35.87305 142.66097 29628 ft 393 kts 260°
2026-05-08 06:47 35.86965 142.62808 28935 ft 394 kts 260°
2026-05-08 06:47 35.86618 142.59457 28199 ft 394 kts 260°
2026-05-08 06:47 35.86272 142.56120 27699 ft 389 kts 260°
2026-05-08 06:47 35.85934 142.52853 27213 ft 385 kts 260°
2026-05-08 06:48 35.85600 142.49640 26737 ft 380 kts 260°
2026-05-08 06:48 35.85263 142.46416 26252 ft 376 kts 260°
2026-05-08 06:48 35.84930 142.43240 25766 ft 372 kts 260°
2026-05-08 06:48 35.84600 142.40094 25282 ft 369 kts 260°
2026-05-08 06:49 35.84277 142.37025 24810 ft 365 kts 260°
2026-05-08 06:49 35.83951 142.33936 24326 ft 362 kts 259°
2026-05-08 06:49 35.83623 142.30850 23843 ft 359 kts 260°
2026-05-08 06:49 35.83302 142.27838 23373 ft 356 kts 260°
2026-05-08 06:50 35.82982 142.24823 22899 ft 354 kts 260°
2026-05-08 06:50 35.82665 142.21841 22436 ft 352 kts 259°
2026-05-08 06:50 35.82348 142.18870 21971 ft 350 kts 259°
2026-05-08 06:50 35.82030 142.15903 21494 ft 348 kts 259°
2026-05-08 06:51 35.81714 142.12961 21015 ft 347 kts 259°
2026-05-08 06:51 35.81395 142.10005 20525 ft 345 kts 259°
2026-05-08 06:51 35.81081 142.07098 20041 ft 343 kts 259°
2026-05-08 06:51 35.80765 142.04202 19556 ft 342 kts 259°
2026-05-08 06:52 35.80450 142.01297 19067 ft 340 kts 258°
2026-05-08 06:52 35.80137 141.98442 18577 ft 339 kts 258°
2026-05-08 06:52 35.79825 141.95589 18092 ft 337 kts 258°
2026-05-08 06:52 35.79516 141.92749 17598 ft 336 kts 258°
2026-05-08 06:53 35.79207 141.89920 17115 ft 334 kts 258°
2026-05-08 06:53 35.78898 141.87068 16612 ft 333 kts 258°
2026-05-08 06:53 35.78595 141.84288 16129 ft 331 kts 258°
2026-05-08 06:53 35.78289 141.81488 15641 ft 330 kts 258°
2026-05-08 06:54 35.77984 141.78682 15173 ft 327 kts 258°
2026-05-08 06:54 35.77756 141.75926 14691 ft 327 kts 261°
2026-05-08 06:54 35.77655 141.73155 14185 ft 326 kts 263°
2026-05-08 06:54 35.77597 141.70358 13674 ft 325 kts 264°
2026-05-08 06:55 35.77536 141.67587 13161 ft 324 kts 264°
2026-05-08 06:55 35.77478 141.64844 12657 ft 322 kts 264°
2026-05-08 06:55 35.77420 141.62108 12180 ft 320 kts 264°
2026-05-08 06:55 35.77361 141.59405 11717 ft 317 kts 264°
2026-05-08 06:56 35.77303 141.56711 11263 ft 314 kts 264°
2026-05-08 06:56 35.77245 141.54030 11036 ft 314 kts 264°
2026-05-08 06:56 35.77184 141.51329 11030 ft 315 kts 264°
2026-05-08 06:56 35.77127 141.48654 11033 ft 316 kts 264°
2026-05-08 06:57 35.77068 141.45960 11030 ft 316 kts 264°
2026-05-08 06:57 35.77008 141.43245 11025 ft 315 kts 264°
2026-05-08 06:57 35.76949 141.40541 11023 ft 315 kts 264°
2026-05-08 06:57 35.76887 141.37846 11020 ft 315 kts 264°
2026-05-08 06:58 35.76824 141.35158 10983 ft 312 kts 264°
2026-05-08 06:58 35.76761 141.32546 10614 ft 309 kts 264°
2026-05-08 06:58 35.76698 141.29918 10245 ft 303 kts 264°
2026-05-08 06:58 35.76637 141.27350 10001 ft 295 kts 264°
2026-05-08 06:59 35.76578 141.24872 9755 ft 286 kts 264°
2026-05-08 06:59 35.76459 141.22463 9502 ft 276 kts 256°
2026-05-08 06:59 35.75700 141.20395 9246 ft 265 kts 232°
2026-05-08 06:59 35.74327 141.18935 9002 ft 261 kts 212°
2026-05-08 07:00 35.72705 141.17925 8756 ft 255 kts 210°
2026-05-08 07:00 35.71137 141.16946 8510 ft 251 kts 211°
2026-05-08 07:00 35.69583 141.15974 8262 ft 251 kts 211°
2026-05-08 07:00 35.68028 141.15001 8017 ft 249 kts 211°
2026-05-08 07:01 35.66683 141.13727 7761 ft 244 kts 232°
2026-05-08 07:01 35.65924 141.11885 7525 ft 247 kts 253°
2026-05-08 07:01 35.65778 141.09776 7288 ft 251 kts 265°
2026-05-08 07:01 35.65785 141.07637 7039 ft 250 kts 265°
2026-05-08 07:02 35.65785 141.05513 6796 ft 249 kts 265°
2026-05-08 07:02 35.65788 141.03397 6547 ft 247 kts 265°
2026-05-08 07:02 35.65807 141.01321 6303 ft 243 kts 269°
2026-05-08 07:02 35.66370 140.99358 6044 ft 253 kts 301°
2026-05-08 07:03 35.67793 140.98067 6004 ft 260 kts 333°
2026-05-08 07:03 35.69587 140.97554 6018 ft 267 kts 341°
2026-05-08 07:03 35.71480 140.97108 6015 ft 275 kts 342°
2026-05-08 07:03 35.73308 140.96678 6007 ft 265 kts 341°
2026-05-08 07:04 35.75138 140.96240 6003 ft 266 kts 343°
2026-05-08 07:04 35.76979 140.96030 6006 ft 271 kts 353°
2026-05-08 07:04 35.78891 140.96100 6007 ft 273 kts 357°
2026-05-08 07:04 35.80780 140.96243 6004 ft 274 kts 357°
2026-05-08 07:05 35.82692 140.96397 6003 ft 273 kts 357°
2026-05-08 07:05 35.84610 140.96544 6001 ft 273 kts 357°
2026-05-08 07:05 35.86519 140.96681 5998 ft 273 kts 356°
2026-05-08 07:05 35.88390 140.96703 5982 ft 266 kts 346°
2026-05-08 07:06 35.90168 140.96193 6003 ft 258 kts 333°
2026-05-08 07:06 35.91819 140.95390 5993 ft 252 kts 322°
2026-05-08 07:06 35.92980 140.93930 5976 ft 230 kts 284°
2026-05-08 07:06 35.93289 140.92056 5999 ft 222 kts 270°
2026-05-08 07:07 35.93473 140.90170 5984 ft 224 kts 272°
2026-05-08 07:07 35.93695 140.88261 5979 ft 224 kts 273°
2026-05-08 07:07 35.93935 140.86374 5975 ft 225 kts 274°
2026-05-08 07:07 35.94193 140.84450 5978 ft 225 kts 274°
2026-05-08 07:08 35.94454 140.82556 5985 ft 226 kts 275°
2026-05-08 07:08 35.94727 140.80649 5979 ft 226 kts 275°
2026-05-08 07:08 35.95000 140.78740 5979 ft 226 kts 275°
2026-05-08 07:08 35.95278 140.76816 5984 ft 226 kts 275°
2026-05-08 07:09 35.95554 140.74893 5979 ft 227 kts 275°
2026-05-08 07:09 35.95829 140.72975 5976 ft 228 kts 275°
2026-05-08 07:09 35.96104 140.71056 5979 ft 229 kts 275°
2026-05-08 07:09 35.96382 140.69113 5973 ft 230 kts 276°
2026-05-08 07:10 35.96661 140.67174 5973 ft 229 kts 276°
2026-05-08 07:10 35.96934 140.65266 5973 ft 228 kts 276°
2026-05-08 07:10 35.97213 140.63319 5985 ft 228 kts 276°
2026-05-08 07:10 35.97487 140.61403 5990 ft 227 kts 276°
2026-05-08 07:11 35.97762 140.59477 5994 ft 227 kts 276°
2026-05-08 07:11 35.98033 140.57577 5994 ft 227 kts 276°
2026-05-08 07:11 35.98311 140.55638 5980 ft 228 kts 275°
2026-05-08 07:11 35.98577 140.53697 5955 ft 229 kts 275°
2026-05-08 07:12 35.98828 140.51753 5964 ft 229 kts 275°
2026-05-08 07:12 35.99077 140.49824 5973 ft 229 kts 275°
2026-05-08 07:12 35.99327 140.47914 5965 ft 219 kts 275°
2026-05-08 07:12 35.99574 140.46081 5973 ft 213 kts 275°
2026-05-08 07:13 35.99817 140.44257 5979 ft 212 kts 276°
2026-05-08 07:13 36.00057 140.42448 5980 ft 214 kts 276°
2026-05-08 07:13 36.00297 140.40645 5978 ft 215 kts 276°
2026-05-08 07:13 36.00540 140.38831 5950 ft 216 kts 276°
2026-05-08 07:14 36.00786 140.36997 5696 ft 213 kts 276°
2026-05-08 07:14 36.01018 140.35283 5357 ft 200 kts 276°
2026-05-08 07:14 36.01149 140.33620 4893 ft 190 kts 263°
2026-05-08 07:14 36.00848 140.32053 4324 ft 187 kts 245°
2026-05-08 07:15 36.00186 140.30702 3749 ft 185 kts 233°
2026-05-08 07:15 35.99446 140.29459 3339 ft 176 kts 232°
2026-05-08 07:15 35.98734 140.28278 3027 ft 167 kts 232°
2026-05-08 07:15 35.97998 140.27235 2964 ft 157 kts 217°
2026-05-08 07:16 35.96986 140.26724 2959 ft 160 kts 187°
2026-05-08 07:16 35.95900 140.26945 2998 ft 157 kts 169°
2026-05-08 07:16 35.94902 140.27473 2978 ft 154 kts 161°
2026-05-08 07:16 35.93961 140.28104 2963 ft 152 kts 159°
2026-05-08 07:17 35.93056 140.28748 2856 ft 151 kts 158°
2026-05-08 07:17 35.92149 140.29405 2663 ft 150 kts 158°
2026-05-08 07:17 35.91252 140.30057 2475 ft 150 kts 158°
2026-05-08 07:17 35.90350 140.30713 2273 ft 148 kts 159°
2026-05-08 07:18 35.89465 140.31355 2072 ft 148 kts 158°
2026-05-08 07:18 35.88584 140.31993 1893 ft 147 kts 159°
2026-05-08 07:18 35.87703 140.32628 1701 ft 146 kts 158°
2026-05-08 07:18 35.86821 140.33254 1521 ft 147 kts 157°
2026-05-08 07:19 35.85934 140.33899 1341 ft 147 kts 156°
2026-05-08 07:19 35.85055 140.34546 1167 ft 146 kts 156°
2026-05-08 07:19 35.84172 140.35178 966 ft 145 kts 155°
2026-05-08 07:19 35.83291 140.35812 750 ft 147 kts 155°
2026-05-08 07:20 35.82412 140.36447 563 ft 146 kts 153°
2026-05-08 07:20 35.81523 140.37093 381 ft 146 kts 152°
2026-05-08 07:20 35.80646 140.37726 206 ft 147 kts 153°
2026-05-08 07:20 35.79832 140.38309 132 ft 95 kts 150°
2026-05-08 07:21 35.79437 140.38591 132 ft 53 kts 150°
2026-05-08 07:21 35.79143 140.38803 133 ft 46 kts 148°
2026-05-08 07:21 35.78920 140.38931 135 ft 30 kts 171°
2026-05-08 07:21 35.78740 140.38950 136 ft 17 kts 175°
2026-05-08 07:22 35.78623 140.38963 135 ft 17 kts 174°
2026-05-08 07:22 35.78524 140.39021 135 ft 15 kts 135°
2026-05-08 07:22 35.78442 140.39111 135 ft 15 kts 152°
2026-05-08 07:22 35.78341 140.39146 135 ft 15 kts 165°
2026-05-08 07:23 35.78238 140.39178 135 ft 15 kts 165°
2026-05-08 07:23 35.78140 140.39182 135 ft 13 kts 213°
2026-05-08 07:23 35.78086 140.39084 135 ft 13 kts 238°
2026-05-08 07:23 35.78055 140.38976 135 ft 13 kts 271°
2026-05-08 07:24 35.78080 140.38864 135 ft 13 kts 297°
2026-05-08 07:24 35.78157 140.38808 135 ft 13 kts 347°
2026-05-08 07:24 35.78250 140.38776 135 ft 13 kts 325°
2026-05-08 07:24 35.78269 140.38672 135 ft 9 kts 253°
2026-05-08 07:25 35.78227 140.38619 135 ft 8 kts 221°
2026-05-08 07:25 35.78186 140.38621 135 ft 6 kts 136°
2026-05-08 07:25 35.78166 140.38646 135 ft 0 kts 132°